Time,TemperatureF,DewpointF,PressureIn,WindDirection,WindDirectionDegrees,WindSpeedMPH,WindSpeedGustMPH,Humidity,HourlyPrecipIn,Conditions,Clouds,dailyrainin,SoftwareType,DateUTC
2013-01-06 00:01:00,31.9,28.8,30.20,West,270,2.9,4.3,88,0.00,,,0.00,WUHU216HW,2013-01-06 06:01:00,
2013-01-06 00:06:00,31.7,28.6,30.20,WSW,248,2.7,3.8,88,0.00,,,0.00,WUHU216HW,2013-01-06 06:06:00,
2013-01-06 00:11:00,31.9,29.1,30.20,West,270,2.9,3.8,89,0.00,,,0.00,WUHU216HW,2013-01-06 06:11:00,
2013-01-06 00:16:00,31.9,29.1,30.20,West,270,2.9,3.8,89,0.00,,,0.00,WUHU216HW,2013-01-06 06:16:00,
2013-01-06 00:21:00,31.9,29.1,30.20,West,270,3.1,3.6,89,0.00,,,0.00,WUHU216HW,2013-01-06 06:21:00,
2013-01-06 00:26:00,31.9,28.8,30.20,WSW,248,3.4,5.1,88,0.00,,,0.00,WUHU216HW,2013-01-06 06:26:00,
2013-01-06 00:31:00,31.7,28.9,30.20,WSW,248,2.9,5.1,89,0.00,,,0.00,WUHU216HW,2013-01-06 06:31:00,
2013-01-06 00:36:00,31.7,28.9,30.20,WSW,248,3.8,3.8,89,0.00,,,0.00,WUHU216HW,2013-01-06 06:36:00,
2013-01-06 00:41:00,31.9,29.1,30.21,West,270,4.7,4.7,89,0.00,,,0.00,WUHU216HW,2013-01-06 06:41:00,
2013-01-06 00:46:00,31.5,28.7,30.21,West,270,3.8,4.7,89,0.00,,,0.00,WUHU216HW,2013-01-06 06:46:00,
2013-01-06 00:51:00,31.5,28.7,30.21,West,270,1.8,4.7,89,0.00,,,0.00,WUHU216HW,2013-01-06 06:51:00,
2013-01-06 00:56:00,31.3,28.3,30.21,West,270,2.0,3.8,88,0.00,,,0.00,WUHU216HW,2013-01-06 06:56:00,
2013-01-06 01:01:00,31.1,28.4,30.21,WSW,248,2.7,4.0,89,0.00,,,0.00,WUHU216HW,2013-01-06 07:01:00,
2013-01-06 01:06:00,31.1,28.4,30.20,WSW,248,1.8,4.0,89,0.00,,,0.00,WUHU216HW,2013-01-06 07:06:00,
2013-01-06 01:11:00,31.0,28.2,30.21,West,270,1.8,2.7,89,0.00,,,0.00,WUHU216HW,2013-01-06 07:11:00,
2013-01-06 01:16:00,30.6,27.8,30.21,West,270,2.9,3.1,89,0.00,,,0.00,WUHU216HW,2013-01-06 07:16:00,
2013-01-06 01:21:00,30.2,27.5,30.21,West,270,2.2,3.6,89,0.00,,,0.00,WUHU216HW,2013-01-06 07:21:00,
2013-01-06 01:26:00,30.1,27.0,30.21,West,270,2.5,3.6,88,0.00,,,0.00,WUHU216HW,2013-01-06 07:26:00,
2013-01-06 01:31:00,30.1,27.3,30.21,West,270,1.1,2.5,89,0.00,,,0.00,WUHU216HW,2013-01-06 07:31:00,
2013-01-06 01:36:00,29.9,26.8,30.21,West,270,1.1,2.2,88,0.00,,,0.00,WUHU216HW,2013-01-06 07:36:00,
2013-01-06 01:41:00,29.5,26.7,30.21,West,270,1.6,1.8,89,0.00,,,0.00,WUHU216HW,2013-01-06 07:41:00,
2013-01-06 01:46:00,29.3,26.6,30.21,WSW,248,1.1,1.8,89,0.00,,,0.00,WUHU216HW,2013-01-06 07:46:00,
2013-01-06 01:51:00,29.3,26.6,30.22,WSW,248,0.9,1.8,89,0.00,,,0.00,WUHU216HW,2013-01-06 07:51:00,
2013-01-06 01:56:00,29.3,26.6,30.22,WSW,248,1.8,1.8,89,0.00,,,0.00,WUHU216HW,2013-01-06 07:56:00,
2013-01-06 02:01:00,29.3,26.6,30.21,West,270,0.4,1.8,89,0.00,,,0.00,WUHU216HW,2013-01-06 08:01:00,
2013-01-06 02:06:00,29.2,26.4,30.21,West,270,0.4,1.8,89,0.00,,,0.00,WUHU216HW,2013-01-06 08:06:00,
2013-01-06 02:11:00,28.8,26.0,30.21,West,270,0.4,1.1,89,0.00,,,0.00,WUHU216HW,2013-01-06 08:11:00,
2013-01-06 02:16:00,28.4,25.7,30.21,West,270,0.7,1.1,89,0.00,,,0.00,WUHU216HW,2013-01-06 08:16:00,
2013-01-06 02:21:00,28.4,26.2,30.21,West,270,0.4,1.1,91,0.00,,,0.00,WUHU216HW,2013-01-06 08:21:00,
2013-01-06 02:26:00,28.3,25.7,30.22,West,270,1.1,1.1,90,0.00,,,0.00,WUHU216HW,2013-01-06 08:26:00,
2013-01-06 02:31:00,28.1,25.8,30.22,West,270,1.3,1.3,91,0.00,,,0.00,WUHU216HW,2013-01-06 08:31:00,
2013-01-06 02:36:00,27.9,25.7,30.22,West,270,1.1,1.3,91,0.00,,,0.00,WUHU216HW,2013-01-06 08:36:00,
2013-01-06 02:41:00,27.9,25.7,30.22,West,270,1.8,1.8,91,0.00,,,0.00,WUHU216HW,2013-01-06 08:41:00,
2013-01-06 02:46:00,27.5,25.0,30.22,West,270,0.9,2.0,90,0.00,,,0.00,WUHU216HW,2013-01-06 08:46:00,
2013-01-06 02:51:00,27.4,24.8,30.23,West,270,1.1,2.0,90,0.00,,,0.00,WUHU216HW,2013-01-06 08:51:00,
2013-01-06 02:56:00,27.2,24.7,30.23,West,270,1.6,1.8,90,0.00,,,0.00,WUHU216HW,2013-01-06 08:56:00,
2013-01-06 03:01:00,27.7,25.5,30.23,West,270,1.6,2.2,91,0.00,,,0.00,WUHU216HW,2013-01-06 09:01:00,
2013-01-06 03:06:00,28.1,25.6,30.23,West,270,1.8,2.7,90,0.00,,,0.00,WUHU216HW,2013-01-06 09:06:00,
2013-01-06 03:11:00,28.3,25.5,30.23,WNW,293,1.3,2.7,89,0.00,,,0.00,WUHU216HW,2013-01-06 09:11:00,
2013-01-06 03:16:00,28.4,25.4,30.23,WNW,293,1.3,2.5,88,0.00,,,0.00,WUHU216HW,2013-01-06 09:16:00,
2013-01-06 03:21:00,28.4,25.4,30.23,West,270,2.0,2.5,88,0.00,,,0.00,WUHU216HW,2013-01-06 09:21:00,
2013-01-06 03:26:00,28.4,25.0,30.23,West,270,1.6,2.2,87,0.00,,,0.00,WUHU216HW,2013-01-06 09:26:00,
2013-01-06 03:31:00,28.3,24.8,30.23,West,270,1.1,1.8,87,0.00,,,0.00,WUHU216HW,2013-01-06 09:31:00,
2013-01-06 03:36:00,28.1,24.4,30.23,West,270,1.1,2.0,86,0.00,,,0.00,WUHU216HW,2013-01-06 09:36:00,
2013-01-06 03:41:00,27.7,24.0,30.23,West,270,1.1,2.5,86,0.00,,,0.00,WUHU216HW,2013-01-06 09:41:00,
2013-01-06 03:46:00,27.5,24.1,30.23,West,270,1.1,2.5,87,0.00,,,0.00,WUHU216HW,2013-01-06 09:46:00,
2013-01-06 03:51:00,27.5,24.1,30.23,West,270,0.9,1.8,87,0.00,,,0.00,WUHU216HW,2013-01-06 09:51:00,
2013-01-06 03:56:00,27.4,23.9,30.23,WSW,248,1.1,1.8,87,0.00,,,0.00,WUHU216HW,2013-01-06 09:56:00,
2013-01-06 04:01:00,27.0,23.3,30.23,WSW,248,0.4,1.8,86,0.00,,,0.00,WUHU216HW,2013-01-06 10:01:00,
2013-01-06 04:06:00,26.8,23.4,30.23,West,270,0.2,1.3,87,0.00,,,0.00,WUHU216HW,2013-01-06 10:06:00,
2013-01-06 04:11:00,27.0,23.6,30.23,WNW,293,0.2,1.1,87,0.00,,,0.00,WUHU216HW,2013-01-06 10:11:00,
2013-01-06 04:16:00,27.0,23.6,30.23,West,270,0.4,1.1,87,0.00,,,0.00,WUHU216HW,2013-01-06 10:16:00,
2013-01-06 04:21:00,26.8,23.4,30.23,West,270,0.4,1.1,87,0.00,,,0.00,WUHU216HW,2013-01-06 10:21:00,
2013-01-06 04:26:00,26.8,23.1,30.23,West,270,0.7,2.2,86,0.00,,,0.00,WUHU216HW,2013-01-06 10:26:00,
2013-01-06 04:31:00,26.8,23.4,30.23,West,270,0.7,2.2,87,0.00,,,0.00,WUHU216HW,2013-01-06 10:31:00,
2013-01-06 04:36:00,26.6,23.2,30.23,WSW,248,0.4,1.8,87,0.00,,,0.00,WUHU216HW,2013-01-06 10:36:00,
2013-01-06 04:41:00,26.5,22.8,30.23,West,270,0.4,1.8,86,0.00,,,0.00,WUHU216HW,2013-01-06 10:41:00,
2013-01-06 04:46:00,26.5,23.0,30.24,West,270,0.4,1.1,87,0.00,,,0.00,WUHU216HW,2013-01-06 10:46:00,
2013-01-06 04:51:00,26.3,23.0,30.24,West,270,0.2,0.7,87,0.00,,,0.00,WUHU216HW,2013-01-06 10:51:00,
2013-01-06 04:56:00,25.7,22.2,30.24,West,270,0.0,0.4,86,0.00,,,0.00,WUHU216HW,2013-01-06 10:56:00,
2013-01-06 05:01:00,25.6,22.2,30.24,West,270,0.0,0.7,87,0.00,,,0.00,WUHU216HW,2013-01-06 11:01:00,
2013-01-06 05:06:00,25.4,22.1,30.24,West,270,0.2,0.7,87,0.00,,,0.00,WUHU216HW,2013-01-06 11:06:00,
2013-01-06 05:11:00,24.8,21.5,30.24,West,270,0.7,1.1,87,0.00,,,0.00,WUHU216HW,2013-01-06 11:11:00,
2013-01-06 05:16:00,24.7,21.3,30.24,WNW,293,0.0,1.1,87,0.00,,,0.00,WUHU216HW,2013-01-06 11:16:00,
2013-01-06 05:21:00,24.3,21.0,30.24,WNW,293,0.2,0.7,87,0.00,,,0.00,WUHU216HW,2013-01-06 11:21:00,
2013-01-06 05:26:00,24.3,21.0,30.24,WNW,293,0.0,0.7,87,0.00,,,0.00,WUHU216HW,2013-01-06 11:26:00,
2013-01-06 05:31:00,23.9,20.6,30.24,WNW,293,0.0,0.4,87,0.00,,,0.00,WUHU216HW,2013-01-06 11:31:00,
2013-01-06 05:36:00,23.9,20.9,30.25,WNW,293,0.2,0.4,88,0.00,,,0.00,WUHU216HW,2013-01-06 11:36:00,
2013-01-06 05:41:00,23.8,20.4,30.25,WNW,293,0.4,0.4,87,0.00,,,0.00,WUHU216HW,2013-01-06 11:41:00,
2013-01-06 05:46:00,23.9,20.9,30.25,WNW,293,0.4,0.7,88,0.00,,,0.00,WUHU216HW,2013-01-06 11:46:00,
2013-01-06 05:51:00,24.1,21.1,30.25,WNW,293,0.4,0.7,88,0.00,,,0.00,WUHU216HW,2013-01-06 11:51:00,
2013-01-06 05:56:00,23.8,20.7,30.25,WNW,293,0.2,0.7,88,0.00,,,0.00,WUHU216HW,2013-01-06 11:56:00,
2013-01-06 06:01:00,23.6,20.5,30.25,West,270,0.9,0.9,88,0.00,,,0.00,WUHU216HW,2013-01-06 12:01:00,
2013-01-06 06:06:00,24.1,21.1,30.26,West,270,0.4,0.9,88,0.00,,,0.00,WUHU216HW,2013-01-06 12:06:00,
2013-01-06 06:11:00,24.3,21.2,30.26,West,270,0.4,0.9,88,0.00,,,0.00,WUHU216HW,2013-01-06 12:11:00,
2013-01-06 06:16:00,24.5,21.7,30.26,West,270,0.4,1.3,89,0.00,,,0.00,WUHU216HW,2013-01-06 12:16:00,
2013-01-06 06:21:00,24.5,21.4,30.26,West,270,0.7,1.3,88,0.00,,,0.00,WUHU216HW,2013-01-06 12:21:00,
2013-01-06 06:26:00,24.5,21.4,30.27,West,270,0.2,1.3,88,0.00,,,0.00,WUHU216HW,2013-01-06 12:26:00,
2013-01-06 06:31:00,24.3,21.2,30.27,NW,315,0.4,1.8,88,0.00,,,0.00,WUHU216HW,2013-01-06 12:31:00,
2013-01-06 06:36:00,24.5,21.4,30.27,NW,315,0.7,1.8,88,0.00,,,0.00,WUHU216HW,2013-01-06 12:36:00,
2013-01-06 06:41:00,24.5,21.4,30.28,NW,315,0.7,1.8,88,0.00,,,0.00,WUHU216HW,2013-01-06 12:41:00,
2013-01-06 06:46:00,24.3,21.2,30.28,West,270,0.9,1.6,88,0.00,,,0.00,WUHU216HW,2013-01-06 12:46:00,
2013-01-06 06:51:00,24.5,21.4,30.28,WNW,293,1.1,1.8,88,0.00,,,0.00,WUHU216HW,2013-01-06 12:51:00,
2013-01-06 06:56:00,24.5,21.4,30.28,NW,315,1.1,1.8,88,0.00,,,0.00,WUHU216HW,2013-01-06 12:56:00,
2013-01-06 07:01:00,24.5,21.4,30.28,WNW,293,0.7,1.6,88,0.00,,,0.00,WUHU216HW,2013-01-06 13:01:00,
2013-01-06 07:06:00,24.5,21.4,30.29,NW,315,1.3,1.6,88,0.00,,,0.00,WUHU216HW,2013-01-06 13:06:00,
2013-01-06 07:11:00,24.5,21.4,30.29,NW,315,0.9,1.8,88,0.00,,,0.00,WUHU216HW,2013-01-06 13:11:00,
2013-01-06 07:16:00,24.7,21.6,30.29,NW,315,1.6,2.2,88,0.00,,,0.00,WUHU216HW,2013-01-06 13:16:00,
2013-01-06 07:21:00,24.8,21.8,30.29,NW,315,1.3,2.5,88,0.00,,,0.00,WUHU216HW,2013-01-06 13:21:00,
2013-01-06 07:26:00,24.8,21.5,30.30,NW,315,2.0,2.5,87,0.00,,,0.00,WUHU216HW,2013-01-06 13:26:00,
2013-01-06 07:31:00,25.0,21.7,30.30,NW,315,2.0,2.9,87,0.00,,,0.00,WUHU216HW,2013-01-06 13:31:00,
2013-01-06 07:36:00,24.8,21.2,30.30,NW,315,1.6,2.9,86,0.00,,,0.00,WUHU216HW,2013-01-06 13:36:00,
2013-01-06 07:41:00,24.7,21.1,30.30,NW,315,1.1,2.0,86,0.00,,,0.00,WUHU216HW,2013-01-06 13:41:00,
2013-01-06 07:46:00,24.5,20.9,30.30,NW,315,0.9,1.6,86,0.00,,,0.00,WUHU216HW,2013-01-06 13:46:00,
2013-01-06 07:51:00,24.5,21.2,30.30,NW,315,1.1,1.8,87,0.00,,,0.00,WUHU216HW,2013-01-06 13:51:00,
2013-01-06 07:56:00,24.5,21.2,30.30,NW,315,1.1,1.8,87,0.00,,,0.00,WUHU216HW,2013-01-06 13:56:00,
2013-01-06 08:01:00,24.5,21.2,30.30,NW,315,0.9,1.8,87,0.00,,,0.00,WUHU216HW,2013-01-06 14:01:00,
2013-01-06 08:06:00,24.8,21.5,30.30,NW,315,0.4,1.8,87,0.00,,,0.00,WUHU216HW,2013-01-06 14:06:00,
2013-01-06 08:11:00,25.0,21.7,30.30,NW,315,1.1,1.8,87,0.00,,,0.00,WUHU216HW,2013-01-06 14:11:00,
2013-01-06 08:16:00,25.2,21.9,30.31,NW,315,0.9,1.8,87,0.00,,,0.00,WUHU216HW,2013-01-06 14:16:00,
2013-01-06 08:21:00,25.6,22.2,30.31,NW,315,1.3,1.8,87,0.00,,,0.00,WUHU216HW,2013-01-06 14:21:00,
2013-01-06 08:26:00,25.9,22.6,30.31,NW,315,0.9,1.3,87,0.00,,,0.00,WUHU216HW,2013-01-06 14:26:00,
2013-01-06 08:31:00,26.6,23.0,30.31,NW,315,2.0,2.5,86,0.00,,,0.00,WUHU216HW,2013-01-06 14:31:00,
2013-01-06 08:36:00,27.9,23.9,30.31,NNW,338,1.3,2.5,85,0.00,,,0.00,WUHU216HW,2013-01-06 14:36:00,